Wind_Speed
11 11 10 10 10 10 9 9 9 8 8 8 9 8 8 8 8 8 9 9 9 10 10 10 11 12 12 12 12 13 13 13 14 14 15 15 16 16 17 17 17 17 18
11 11 11 10 10 10 10 10 10 10 9 9 9 9 8 8 8 9 9 10 10 11 11 11 12 13 13 13 14 14 14 15 15 16 16 17 17 17 18 18 18 18 19
12 12 12 12 11 11 11 10 10 10 10 10 9 9 9 9 9 10 10 11 12 12 12 13 13 14 14 15 15 15 16 17 17 18 18 18 18 18 19 19 19 20 20
13 13 13 13 12 12 11 11 11 11 11 10 9 10 10 10 11 11 12 12 13 13 13 14 14 15 15 16 16 17 17 18 18 19 19 19 20 20 20 20 20 20 21
13 13 14 14 14 13 13 12 12 12 12 12 11 12 12 12 12 13 13 13 13 14 14 15 15 16 16 17 18 18 19 19 19 20 20 20 21 21 21 21 21 21 22
14 14 14 15 15 14 14 14 14 14 14 13 14 13 14 14 14 15 15 15 15 15 15 16 17 18 18 19 19 19 20 20 21 21 21 21 22 22 22 22 22 23 23
15 15 15 16 16 15 15 15 15 15 15 15 15 15 15 15 16 16 16 16 16 17 17 18 19 19 20 20 20 21 21 22 22 22 22 22 23 23 24 24 24 24 24
16 16 16 16 16 16 16 16 16 16 16 16 16 16 16 16 17 17 17 17 18 18 19 19 20 21 21 21 22 22 22 22 23 24 24 24 24 24 24 25 25 25 24
16 16 16 16 17 17 17 18 17 17 17 17 17 17 17 18 18 19 19 19 19 20 20 21 22 22 22 22 22 23 24 24 24 25 25 25 25 25 26 26 26 26 26
16 17 16 17 17 17 17 17 17 18 18 18 18 18 19 19 19 20 20 20 20 21 21 22 23 23 23 23 24 24 25 25 26 26 25 25 25 26 27 27 27 27 27
16 17 17 17 17 17 17 17 18 18 18 18 19 19 20 20 20 21 21 21 21 22 22 23 23 23 24 24 25 26 26 27 27 27 27 27 27 27 28 29 29 29 29
17 18 18 19 19 19 18 19 19 19 19 20 20 21 21 21 21 22 22 22 23 23 24 24 24 24 25 26 26 27 28 28 28 28 28 28 28 28 29 29 30 30 30
18 19 19 20 20 20 20 20 20 21 21 21 22 22 22 22 22 23 23 24 24 24 24 25 25 26 26 27 27 28 29 29 29 28 28 29 29 30 30 31 31 32 32
19 19 20 20 21 21 21 21 22 22 22 22 22 23 23 23 23 24 24 25 26 26 27 27 27 27 27 28 29 30 30 30 30 29 29 30 31 31 32 33 33 33 34
19 20 20 21 21 21 22 22 22 22 23 23 24 24 24 25 25 25 25 26 27 27 27 27 28 28 29 29 31 31 31 31 31 31 32 33 33 34 34 35 35 36 36
22 22 22 22 23 23 24 24 24 24 25 26 26 26 26 26 27 27 27 28 28 28 29 29 30 30 31 31 32 32 32 33 33 34 34 35 36 36 36 37 37 38 38
23 23 24 24 24 25 25 26 26 27 27 27 28 28 29 28 28 29 29 29 30 30 30 31 31 32 33 33 33 33 34 34 35 35 36 37 37 37 37 38 39 39 39
24 25 25 25 26 27 27 27 28 28 29 29 30 30 30 30 30 31 30 31 31 32 33 33 33 34 34 34 35 35 35 36 36 37 37 37 38 38 39 39 40 40 40
26 26 27 27 28 29 29 29 29 30 31 32 32 32 32 32 33 32 32 33 33 34 34 35 35 35 36 36 36 36 37 38 38 39 38 38 39 40 40 41 41 41 41
27 28 28 29 30 31 31 31 32 32 33 33 32 32 32 32 32 33 33 34 34 35 36 36 37 37 37 37 38 38 38 39 39 40 40 40 41 41 42 42 42 42 42
28 29 29 29 30 30 31 32 32 32 33 33 33 34 34 34 34 34 35 35 36 36 36 37 38 38 38 39 39 39 39 40 40 41 41 41 42 43 43 43 44 44 44
30 30 31 31 31 32 33 33 33 33 34 34 34 34 35 36 36 37 37 37 37 37 38 38 38 38 39 39 39 40 40 41 41 42 42 42 43 44 44 45 45 45 44
32 32 32 32 32 33 33 34 34 34 35 35 35 36 36 36 37 38 38 39 39 39 39 39 39 40 40 40 40 41 41 41 42 42 43 43 44 45 45 45 45 45 45
32 32 32 33 33 34 34 34 34 35 35 36 36 37 37 38 38 39 40 40 40 40 40 41 41 41 41 41 41 42 42 43 43 44 44 44 45 45 45 45 45 45 45
33 32 33 33 34 35 35 36 36 36 37 37 37 38 38 39 40 40 41 41 41 42 42 43 43 43 42 42 43 43 43 44 44 45 45 46 46 46 46 45 45 45 45
34 35 35 36 36 36 36 37 37 37 37 37 37 38 39 40 41 41 42 42 42 43 43 43 43 43 43 43 43 44 44 44 45 45 46 46 46 46 46 46 45 45 45
Wind_Direction
227 227 228 231 233 234 242 248 254 261 267 277 282 282 285 290 295 298 303 307 310 313 314 314 313 312 312 312 311 310 309 308 308 307 305 303 302 300 297 295 296 296 295
229 229 230 235 237 241 245 249 253 262 267 275 279 279 279 284 290 296 299 302 305 307 309 311 312 312 312 312 312 310 309 308 307 307 306 305 303 303 300 297 296 297 296
233 234 236 239 242 245 247 249 253 261 267 273 274 275 277 282 288 293 297 300 302 304 306 309 311 311 311 311 311 310 309 308 307 306 306 306 305 303 301 299 297 297 296
236 237 239 243 245 246 249 254 257 260 265 269 270 276 280 284 289 291 294 299 302 303 305 307 309 309 309 309 309 309 309 310 309 308 306 306 305 303 302 301 298 297 296
238 239 242 246 247 250 253 257 259 261 264 267 271 276 281 285 288 292 295 297 300 302 303 306 309 309 309 308 309 309 309 309 309 308 307 305 304 303 303 302 301 299 298
242 243 245 248 248 250 253 256 259 262 266 269 272 275 280 285 288 291 293 296 298 300 301 303 306 308 307 307 308 309 308 308 308 307 306 305 304 304 303 302 301 300 298
245 247 249 251 250 250 252 257 260 262 265 269 274 278 280 284 286 288 291 293 295 297 299 300 302 305 305 306 306 308 308 307 306 307 307 306 304 304 303 302 301 300 298
248 248 249 251 251 252 255 258 261 263 266 270 275 279 281 283 286 289 291 291 293 295 297 299 300 302 302 303 304 305 306 307 306 305 305 304 303 303 303 303 302 301 298
250 251 253 254 253 254 256 258 260 263 268 272 277 278 281 283 286 289 290 290 291 294 296 298 299 301 301 302 303 304 304 305 306 306 305 305 304 304 304 303 303 301 300
253 255 257 257 256 256 259 259 261 264 268 273 276 278 280 282 285 288 290 290 291 294 296 297 299 300 300 300 302 303 303 304 304 303 303 304 304 303 302 302 303 302 300
256 258 259 259 258 259 260 262 264 265 269 273 275 278 280 281 282 285 287 289 291 293 295 297 299 299 299 300 301 302 303 303 303 303 302 302 302 302 301 302 302 301 300
257 259 260 260 260 261 261 263 265 268 271 274 276 278 280 280 281 282 285 288 291 293 295 296 298 299 299 300 301 302 303 304 304 303 302 302 302 302 302 302 302 300 300
259 261 261 261 262 261 263 265 266 269 271 274 276 277 280 280 281 283 285 287 289 292 294 295 297 299 299 300 301 302 302 303 303 302 301 301 301 301 302 302 301 300 299
261 261 261 262 262 263 264 266 268 270 272 275 277 278 279 280 282 283 286 289 291 293 295 296 296 297 297 299 301 302 302 302 301 300 300 300 301 301 301 301 301 300 299
261 262 261 261 264 266 267 267 269 272 274 275 277 279 280 282 282 284 287 289 290 291 293 294 294 295 297 298 300 300 300 300 301 300 299 300 301 301 301 301 301 300 299
262 262 262 263 266 268 269 270 271 273 274 275 276 278 281 281 281 283 285 287 288 290 292 294 295 296 296 297 299 299 299 299 300 300 300 301 301 301 301 301 301 300 299
264 263 263 265 267 269 270 271 272 273 275 277 277 278 279 280 282 284 284 285 288 290 292 294 295 296 296 297 298 297 297 298 299 300 301 301 301 301 301 302 301 301 300
266 266 264 264 267 268 269 270 271 273 274 276 277 277 278 280 282 284 285 287 290 291 292 293 294 296 296 296 295 295 297 298 299 300 301 301 301 301 301 302 301 301 301
266 267 267 266 267 268 269 269 270 272 273 275 275 276 279 280 281 283 285 287 289 290 292 292 293 294 295 295 295 295 296 297 298 299 300 300 301 301 301 301 301 300 300
267 268 268 268 269 269 270 270 271 272 274 275 276 278 280 281 282 283 285 287 289 290 291 293 293 293 294 294 295 295 296 297 298 299 299 299 300 301 300 301 301 300 299
268 270 271 272 271 271 272 272 273 273 274 275 277 279 280 281 282 284 285 287 289 290 292 293 293 293 294 294 295 295 296 297 297 298 298 299 300 301 300 300 301 300 299
270 271 273 275 275 274 273 274 274 275 276 277 278 278 279 280 281 283 285 286 288 289 291 292 293 294 294 295 295 296 296 296 297 297 297 298 299 299 299 300 300 300 299
271 272 273 273 273 274 275 275 276 276 276 277 277 278 279 280 282 283 284 286 287 289 290 291 293 294 294 295 295 296 296 297 296 296 297 297 298 299 299 299 299 299 299
272 273 274 273 273 275 276 277 278 278 278 278 278 278 279 280 282 283 284 285 287 288 289 290 291 292 293 294 295 295 296 296 296 297 297 297 298 299 299 299 299 299 299
272 274 275 275 276 276 277 278 280 280 280 279 278 278 279 280 282 283 284 285 286 287 288 289 290 291 292 293 294 294 295 295 295 295 296 296 297 298 299 299 299 299 298
273 274 275 276 277 278 278 279 280 281 281 280 279 280 281 282 283 283 284 285 286 287 288 289 290 291 292 293 294 295 295 295 295 295 295 296 297 297 297 298 298 299 298
Height
5870 5871 5872 5873 5874 5874 5874 5874 5874 5875 5875 5874 5874 5874 5873 5872 5871 5870 5869 5868 5867 5865 5863 5862 5860 5858 5857 5855 5853 5851 5849 5847 5845 5843 5841 5839 5837 5835 5833 5831 5829 5827 5824
5867 5868 5869 5870 5871 5872 5872 5872 5872 5872 5872 5872 5872 5871 5870 5870 5869 5868 5867 5866 5864 5863 5861 5860 5858 5856 5854 5852 5850 5848 5846 5844 5842 5840 5837 5835 5833 5831 5828 5826 5824 5822 5820
5865 5866 5867 5868 5868 5869 5869 5869 5870 5870 5870 5869 5869 5868 5868 5867 5866 5865 5864 5863 5862 5860 5858 5857 5855 5853 5851 5849 5847 5845 5842 5840 5838 5836 5833 5831 5828 5826 5824 5821 5819 5817 5815
5861 5863 5864 5864 5865 5866 5866 5866 5867 5867 5867 5867 5866 5866 5865 5864 5863 5862 5861 5860 5859 5857 5855 5854 5852 5850 5848 5846 5843 5841 5838 5836 5833 5831 5829 5826 5824 5821 5819 5816 5814 5811 5809
5858 5859 5860 5861 5862 5863 5863 5863 5863 5863 5864 5864 5863 5863 5862 5861 5860 5859 5858 5857 5855 5853 5852 5850 5848 5846 5844 5842 5839 5837 5834 5832 5829 5827 5824 5821 5818 5816 5813 5811 5808 5806 5803
5855 5856 5857 5857 5858 5859 5859 5860 5860 5860 5860 5860 5860 5859 5858 5858 5857 5855 5854 5853 5851 5850 5848 5846 5844 5842 5840 5838 5835 5833 5830 5827 5825 5822 5819 5816 5813 5810 5807 5805 5802 5800 5797
5851 5852 5853 5853 5854 5855 5856 5856 5856 5856 5856 5856 5856 5855 5854 5853 5852 5851 5850 5849 5847 5846 5844 5842 5840 5838 5835 5833 5831 5828 5825 5822 5819 5816 5813 5810 5807 5805 5802 5799 5796 5794 5791
5847 5847 5848 5849 5850 5850 5851 5852 5852 5852 5852 5852 5851 5851 5850 5849 5848 5847 5845 5844 5843 5841 5839 5837 5835 5833 5830 5828 5826 5823 5820 5817 5814 5811 5808 5805 5801 5798 5796 5793 5790 5787 5785
5842 5843 5844 5844 5845 5846 5846 5847 5847 5847 5847 5847 5847 5846 5845 5844 5843 5842 5841 5839 5838 5836 5834 5832 5830 5828 5825 5823 5820 5817 5815 5811 5808 5805 5802 5799 5795 5792 5789 5787 5784 5781 5778
5837 5838 5839 5840 5840 5841 5841 5841 5842 5842 5842 5842 5842 5841 5840 5839 5838 5837 5836 5834 5833 5831 5829 5826 5824 5822 5819 5816 5814 5811 5808 5805 5802 5799 5795 5792 5789 5786 5783 5780 5777 5774 5771
5833 5834 5834 5834 5835 5835 5836 5836 5837 5837 5837 5837 5836 5835 5835 5834 5833 5831 5830 5829 5827 5825 5823 5820 5818 5815 5813 5810 5807 5804 5801 5798 5795 5792 5789 5785 5782 5779 5776 5772 5769 5766 5763
5828 5828 5829 5829 5830 5830 5831 5831 5831 5831 5831 5831 5831 5830 5829 5828 5827 5825 5824 5822 5821 5819 5817 5814 5812 5809 5806 5803 5800 5797 5794 5791 5788 5784 5781 5778 5775 5772 5768 5764 5761 5757 5754
5823 5823 5823 5824 5824 5825 5825 5826 5826 5826 5825 5825 5825 5824 5823 5822 5821 5819 5818 5816 5814 5812 5810 5808 5805 5802 5799 5796 5793 5790 5787 5783 5780 5777 5774 5771 5767 5764 5760 5757 5753 5749 5746
5817 5817 5817 5818 5818 5819 5819 5819 5820 5820 5819 5819 5818 5818 5817 5815 5814 5813 5811 5809 5807 5805 5803 5800 5798 5795 5792 5789 5786 5782 5779 5776 5772 5769 5766 5763 5759 5756 5752 5748 5745 5741 5737
5811 5811 5811 5812 5812 5813 5813 5813 5813 5813 5813 5812 5812 5811 5810 5809 5807 5806 5804 5802 5800 5798 5795 5793 5790 5787 5784 5782 5778 5775 5771 5768 5765 5761 5758 5755 5751 5747 5744 5739 5736 5732 5728
5805 5805 5805 5806 5806 5806 5806 5806 5806 5806 5806 5805 5804 5803 5802 5801 5800 5798 5797 5795 5792 5790 5788 5785 5782 5779 5777 5773 5770 5767 5763 5760 5756 5753 5749 5746 5742 5738 5734 5730 5726 5722 5718
5798 5798 5799 5799 5799 5799 5799 5799 5798 5798 5797 5797 5796 5795 5794 5793 5791 5790 5788 5786 5784 5782 5780 5777 5774 5771 5768 5765 5761 5758 5754 5751 5747 5744 5740 5736 5732 5728 5724 5720 5715 5711 5707
5791 5791 5791 5791 5791 5791 5791 5791 5790 5790 5789 5788 5787 5786 5785 5784 5783 5781 5779 5777 5776 5773 5771 5768 5765 5762 5759 5755 5752 5748 5745 5741 5738 5734 5730 5726 5722 5718 5713 5709 5704 5700 5696
5784 5783 5783 5783 5783 5783 5782 5782 5781 5781 5780 5780 5779 5777 5776 5775 5773 5771 5770 5768 5766 5764 5761 5758 5755 5752 5749 5745 5742 5738 5735 5731 5727 5723 5719 5715 5711 5706 5702 5697 5693 5688 5684
5775 5775 5775 5774 5774 5773 5773 5773 5772 5771 5771 5770 5769 5768 5766 5765 5763 5761 5760 5758 5756 5753 5751 5748 5745 5742 5738 5735 5731 5728 5724 5720 5717 5713 5708 5704 5699 5695 5690 5686 5681 5677 5672
5766 5766 5765 5765 5764 5764 5763 5763 5762 5762 5761 5760 5758 5757 5755 5754 5753 5751 5749 5747 5745 5743 5740 5737 5734 5731 5727 5724 5720 5717 5713 5709 5705 5701 5697 5693 5688 5683 5678 5674 5669 5664 5660
5757 5756 5756 5755 5755 5754 5753 5753 5752 5751 5750 5749 5747 5746 5744 5743 5742 5740 5738 5736 5734 5731 5729 5726 5722 5719 5716 5712 5709 5705 5701 5697 5693 5689 5685 5681 5676 5671 5666 5662 5657 5652 5647
5747 5747 5746 5745 5744 5744 5743 5742 5741 5740 5739 5737 5736 5735 5733 5732 5730 5729 5727 5725 5722 5720 5717 5714 5711 5707 5704 5700 5697 5693 5689 5685 5681 5677 5673 5669 5664 5659 5654 5650 5645 5640 5635
5736 5736 5735 5735 5734 5733 5732 5731 5730 5729 5727 5726 5725 5723 5722 5720 5718 5717 5714 5712 5710 5707 5705 5702 5698 5695 5692 5688 5684 5681 5677 5673 5668 5664 5660 5656 5652 5647 5642 5637 5632 5628 5623
5726 5725 5725 5724 5723 5722 5721 5720 5718 5717 5715 5714 5713 5711 5709 5708 5706 5704 5702 5699 5697 5695 5692 5689 5686 5682 5679 5675 5672 5668 5664 5660 5655 5651 5647 5643 5638 5634 5629 5625 5620 5615 5610
5715 5715 5714 5713 5712 5710 5709 5708 5706 5705 5703 5702 5700 5699 5697 5695 5693 5691 5689 5686 5684 5682 5679 5676 5673 5670 5666 5663 5659 5655 5651 5647 5642 5638 5634 5629 5625 5621 5616 5612 5607 5602 5597